This is the latest recevied weather packets stored in our database for station/object KJ5FA-9. If no packets are shown the sender has not sent any weather packets the latest 10 day(s).
| Time | Temp. | Humidity | Pressure | Rain* | Wind** | Luminosity | Snow |
|---|---|---|---|---|---|---|---|
| 1788088764 | 18.33° C | 90% | 1018.6 hPa | 0 mm | - | - | - |
| 1788088571 | 18.33° C | 90% | 1018.6 hPa | 0 mm | 0.89 m/s, 18° | - | - |
| 1788087264 | 18.89° C | 90% | 1018.6 hPa | 0 mm | - | - | - |
| 1788086771 | 18.33° C | 91% | 1018.5 hPa | 0 mm | 1.34 m/s, 17° | - | - |
| 1788084971 | 18.89° C | 91% | 1018.4 hPa | 0 mm | 0.45 m/s, 27° | - | - |
| 1788083172 | 18.89° C | 92% | 1018.3 hPa | 0 mm | 0 m/s | - | - |
| 1788081371 | 18.89° C | 92% | 1018.4 hPa | 0 mm | 0.45 m/s, 53° | - | - |
| 1788081264 | 18.89° C | 92% | 1018.5 hPa | 0 mm | - | - | - |
| 1788079764 | 18.89° C | 90% | 1018.3 hPa | 0 mm | - | - | - |
| 1788079572 | 19.44° C | 90% | 1018.5 hPa | 0 mm | 0.45 m/s, 136° | - | - |
| 1788078264 | 19.44° C | 90% | 1018.4 hPa | 0 mm | - | - | - |
| 1788077772 | 19.44° C | 90% | 1018.4 hPa | 0 mm | 1.34 m/s, 0° | - | - |
| 1788076764 | 19.44° C | 91% | 1018.4 hPa | 0 mm | - | - | - |
| 1788075971 | 19.44° C | 90% | 1018.7 hPa | 0 mm | 0.89 m/s, 89° | - | - |
| 1788075264 | 19.44° C | 90% | 1018.2 hPa | 0 mm | - | - | - |
| 1788074172 | 20° C | 90% | 1018.6 hPa | 0 mm | 0.89 m/s, 201° | - | - |
| 1788073764 | 20° C | 90% | 1018.7 hPa | 0 mm | - | - | - |
| 1788072372 | 20° C | 89% | 1018.6 hPa | 0 mm | 0.45 m/s, 66° | - | - |
| 1788072264 | 20° C | 88% | 1018.9 hPa | 0 mm | - | - | - |
| 1788070764 | 20° C | 88% | 1018.8 hPa | 0 mm | - | - | - |
| 1788070752 | 20° C | 88% | 1018.8 hPa | 0 mm | 0.45 m/s, 21° | - | - |
| 1788070212 | 20° C | 88% | 1018.7 hPa | 0 mm | 0 m/s | - | - |
| 1788012628 | 24.44° C | 74% | 1021.1 hPa | 0 mm | - | - | - |
| 1788011128 | 22.78° C | 79% | 1021.2 hPa | 0 mm | - | - | - |
| 1788009628 | 21.11° C | 84% | 1021.3 hPa | 0 mm | - | - | - |
* Rain latest hour (hover to see other rain measurements)
** Current wind speed in m/s (hover to see current wind gust speed)